Weather History for Dax, France

Change the Weather History Date:

Friday, March 8, 2013

  Actual Average (LFBZ) Record (LFBZ)
Temperature  
Mean Temperature 59 °F -  
Max Temperature 68 °F 58 °F 70 °F (2014)
Min Temperature 50 °F 45 °F 32 °F (2005)
Degree Days  
Heating Degree Days 6    
Growing Degree Days 9 (Base 50)    
Moisture  
Dew Point 47 °F    
Average Humidity 67    
Maximum Humidity 94    
Minimum Humidity 40    
Precipitation  
Precipitation 0.00 in - - ()
Sea Level Pressure  
Sea Level Pressure 29.60 in    
Wind  
Wind Speed 8 mph ()    
Max Wind Speed 21 mph    
Max Gust Speed 32 mph    
Visibility 5.8 miles    
Events      
Averages and records for this station are not official NWS values.
T = Trace of Precipitation, MM = Missing Value Source: Averaged Metar Reports

Daily Weather History Graph

Daily Weather History Graph

Search for Another Location

Airport:

Trip Planner

Search our weather history database for the weather conditions in past years. The results will help you decide how hot, cold, wet, or windy it might be!

Date:

Astronomy

Mar. 08, 2013 Rise Set
Actual Time 7:28 AM CET 7:01 PM CET
Civil Twilight 7:00 AM CET 7:30 PM CET
Nautical Twilight 6:27 AM CET 8:03 PM CET
Astronomical Twilight 5:53 AM CET 8:37 PM CET
Moon 5:08 AM CET (3/8) 3:35 PM CET (3/8)
Length of Visible Light 12h 30m
Length of Day
11h 33m
Waning Crescent, 14% of the Moon is Illuminated
Mar 8
Waning Crescent
Mar 11
New
Mar 19
First Quarter
Mar 27
Full
Apr 3
Last Quarter

Hourly Weather History & Observations

Time (CET) Temp. Dew Point Humidity Pressure Visibility Wind Dir Wind Speed Gust Speed Precip Events Conditions
12:00 AM 53.6 °F 51.8 °F 94% 29.47 in 2.8 mi WSW 18.4 mph - N/A   Mostly Cloudy
1:00 AM 51.8 °F 50.0 °F 94% 29.50 in 3.7 mi WSW 20.7 mph 32.2 mph N/A   Mostly Cloudy
2:00 AM 53.6 °F 50.0 °F 88% 29.53 in 6.2 mi WSW 13.8 mph - N/A   Unknown
3:00 AM 53.6 °F 50.0 °F 88% 29.56 in 6.2 mi WSW 12.7 mph - N/A   Unknown
4:00 AM 53.6 °F 50.0 °F 88% 29.56 in 6.2 mi WSW 12.7 mph - N/A   Partly Cloudy
5:00 AM 53.6 °F 50.0 °F 88% 29.59 in 6.2 mi WSW 10.4 mph - N/A   Unknown
6:00 AM 53.6 °F 48.2 °F 82% 29.62 in 6.2 mi WSW 8.1 mph - N/A   Unknown
7:00 AM 51.8 °F 48.2 °F 88% 29.62 in 6.2 mi WSW 4.6 mph - N/A   Scattered Clouds
8:00 AM 50.0 °F 46.4 °F 87% 29.65 in 6.2 mi SSW 4.6 mph - N/A   Scattered Clouds
9:00 AM 53.6 °F 48.2 °F 82% 29.65 in 6.2 mi South 4.6 mph - N/A   Partly Cloudy
10:00 AM 59.0 °F 48.2 °F 67% 29.65 in - South 5.8 mph - N/A   Clear
11:00 AM 62.6 °F 46.4 °F 55% 29.65 in - SSW 8.1 mph - N/A   Clear
12:00 PM 62.6 °F 44.6 °F 52% 29.65 in 6.2 mi Variable 5.8 mph - N/A   Partly Cloudy
1:00 PM 66.2 °F 42.8 °F 43% 29.65 in 6.2 mi SW 6.9 mph - N/A   Partly Cloudy
2:00 PM 64.4 °F 42.8 °F 45% 29.62 in 6.2 mi Variable 2.3 mph - N/A   Partly Cloudy
3:00 PM 66.2 °F 42.8 °F 43% 29.59 in 6.2 mi South 4.6 mph - N/A   Mostly Cloudy
4:00 PM 68.0 °F 42.8 °F 40% 29.59 in 6.2 mi Variable 2.3 mph - N/A   Unknown
5:00 PM 68.0 °F 42.8 °F 40% 29.59 in 6.2 mi Variable 3.5 mph - N/A   Unknown
6:00 PM 66.2 °F 42.8 °F 43% 29.59 in 6.2 mi Variable 1.2 mph - N/A   Unknown
7:00 PM 62.6 °F 44.6 °F 52% 29.59 in 6.2 mi Variable 2.3 mph - N/A   Unknown
8:00 PM 59.0 °F 44.6 °F 59% 29.62 in 6.2 mi ESE 3.5 mph - N/A   Unknown
9:00 PM 59.0 °F 44.6 °F 59% 29.62 in 6.2 mi East 5.8 mph - N/A   Unknown
10:00 PM 59.0 °F 44.6 °F 59% 29.62 in 4.3 mi West 4.6 mph - N/A   Partly Cloudy
11:00 PM 55.4 °F 50.0 °F 82% 29.62 in 6.2 mi Calm Calm - N/A   Unknown